When you browse on this site, cookies collect data to enhance your experience and personalize the content and advertising you see.
Visit our Privacy Policy to learn more. By continuing to use the site, you agree to this use of cookies and data.
  • Em Portugal
  • Lista de países
  • Para 7 dias
  • Temperatura da água
  • Mapa do tempo
  • Widgets de tempo
  • user-avatar
    Iniciar Sessão

    Previsão horária em Verhniy Katruh

    Hoje, 31 Maio, Domingo

    Tempo Temperatura Precipitação Vento Pressão Humidade
    00:00 +8°C° 0 mm 0 m/s 586 mmHg 81%
    01:00 +9°C° 0.1 mm 1 m/s 586 mmHg 84%
    02:00 +8°C° 0.1 mm 1 m/s 586 mmHg 88%
    03:00 +8°C° 0 mm 1 m/s 586 mmHg 90%
    04:00 +9°C° 0 mm 1 m/s 587 mmHg 90%
    05:00 +10°C° 0 mm 1 m/s 588 mmHg 89%
    06:00 +11°C° 0 mm 1 m/s 588 mmHg 89%
    07:00 +12°C° 0 mm 2 m/s 589 mmHg 83%
    08:00 +13°C° 0 mm 2 m/s 590 mmHg 78%
    09:00 +13°C° 0 mm 3 m/s 590 mmHg 70%
    10:00 +14°C° 0 mm 3 m/s 590 mmHg 67%
    11:00 +16°C° 0 mm 3 m/s 591 mmHg 65%
    12:00 +16°C° 0 mm 3 m/s 591 mmHg 62%
    13:00 +16°C° 0 mm 3 m/s 590 mmHg 61%
    14:00 +16°C° 0 mm 3 m/s 590 mmHg 60%
    15:00 +16°C° 0 mm 3 m/s 590 mmHg 61%
    16:00 +14°C° 0 mm 3 m/s 590 mmHg 65%
    17:00 +13°C° 0 mm 3 m/s 589 mmHg 68%
    18:00 +13°C° 0 mm 2 m/s 589 mmHg 71%
    19:00 +12°C° 0 mm 2 m/s 588 mmHg 77%
    20:00 +9°C° 0 mm 2 m/s 587 mmHg 83%
    21:00 +8°C° 0 mm 1 m/s 586 mmHg 90%
    22:00 +7°C° 0 mm 2 m/s 586 mmHg 87%
    23:00 +7°C° 0 mm 2 m/s 586 mmHg 85%

    Amanhã, 1 Junho, Segunda-feira

    Tempo Temperatura Precipitação Vento Pressão Humidade
    00:00 +6°C° 0 mm 2 m/s 586 mmHg 82%
    01:00 +6°C° 0 mm 2 m/s 586 mmHg 76%
    02:00 +7°C° 0 mm 1 m/s 585 mmHg 70%
    03:00 +7°C° 0 mm 1 m/s 585 mmHg 64%
    04:00 +9°C° 0 mm 1 m/s 586 mmHg 60%
    05:00 +10°C° 0 mm 1 m/s 587 mmHg 56%
    06:00 +12°C° 0 mm 1 m/s 588 mmHg 52%
    07:00 +13°C° 0 mm 1 m/s 588 mmHg 52%
    08:00 +15°C° 0 mm 2 m/s 589 mmHg 52%
    09:00 +16°C° 0 mm 3 m/s 589 mmHg 51%
    10:00 +17°C° 0 mm 3 m/s 589 mmHg 49%
    11:00 +18°C° 0 mm 3 m/s 589 mmHg 47%
    12:00 +19°C° 0 mm 4 m/s 589 mmHg 45%
    13:00 +18°C° 0 mm 3 m/s 589 mmHg 44%
    14:00 +18°C° 0 mm 3 m/s 588 mmHg 42%
    15:00 +18°C° 0 mm 3 m/s 588 mmHg 41%
    16:00 +17°C° 0 mm 3 m/s 587 mmHg 46%
    17:00 +17°C° 0 mm 2 m/s 587 mmHg 52%
    18:00 +16°C° 0 mm 2 m/s 586 mmHg 57%
    19:00 +14°C° 0 mm 2 m/s 585 mmHg 62%
    20:00 +12°C° 0 mm 2 m/s 584 mmHg 67%
    21:00 +9°C° 0 mm 2 m/s 584 mmHg 72%
    22:00 +8°C° 0 mm 2 m/s 583 mmHg 70%
    23:00 +8°C° 0 mm 2 m/s 583 mmHg 68%

    Depois de amanhã, 2 Junho, Terça-feira

    Tempo Temperatura Precipitação Vento Pressão Humidade
    00:00 +8°C° 0 mm 2 m/s 583 mmHg 67%
    01:00 +8°C° 0 mm 2 m/s 583 mmHg 66%
    02:00 +8°C° 0 mm 2 m/s 583 mmHg 66%
    03:00 +8°C° 0 mm 2 m/s 582 mmHg 66%
    04:00 +10°C° 0 mm 1 m/s 583 mmHg 63%
    05:00 +12°C° 0 mm 1 m/s 584 mmHg 60%
    06:00 +13°C° 0 mm 1 m/s 585 mmHg 58%
    07:00 +15°C° 0 mm 2 m/s 586 mmHg 51%
    08:00 +17°C° 0 mm 3 m/s 586 mmHg 44%
    09:00 +19°C° 0 mm 4 m/s 587 mmHg 38%
    10:00 +19°C° 0 mm 5 m/s 587 mmHg 36%
    11:00 +20°C° 0 mm 6 m/s 587 mmHg 35%
    12:00 +20°C° 0 mm 6 m/s 588 mmHg 34%
    13:00 +20°C° 0 mm 6 m/s 587 mmHg 35%
    14:00 +20°C° 0 mm 5 m/s 587 mmHg 36%
    15:00 +20°C° 0 mm 4 m/s 586 mmHg 36%
    16:00 +17°C° 1.8 mm 4 m/s 585 mmHg 54%
    17:00 +12°C° 1.8 mm 4 m/s 584 mmHg 71%
    18:00 +8°C° 1.8 mm 4 m/s 583 mmHg 89%
    19:00 +9°C° 0.7 mm 3 m/s 583 mmHg 87%
    20:00 +9°C° 0.7 mm 3 m/s 583 mmHg 84%
    21:00 +9°C° 0.7 mm 2 m/s 583 mmHg 82%
    22:00 +9°C° 0.2 mm 2 m/s 582 mmHg 81%
    23:00 +9°C° 0.2 mm 2 m/s 582 mmHg 79%

    3 Junho, Quarta-feira

    Tempo Temperatura Precipitação Vento Pressão Humidade
    00:00 +9°C° 0.2 mm 2 m/s 582 mmHg 78%
    01:00 +8°C° 0.1 mm 2 m/s 581 mmHg 77%
    02:00 +8°C° 0.1 mm 2 m/s 581 mmHg 76%
    03:00 +8°C° 0.1 mm 2 m/s 581 mmHg 75%
    04:00 +9°C° 0.1 mm 2 m/s 582 mmHg 74%
    05:00 +12°C° 0.1 mm 2 m/s 582 mmHg 72%
    06:00 +13°C° 0.1 mm 2 m/s 583 mmHg 71%
    07:00 +15°C° 0 mm 2 m/s 584 mmHg 63%
    08:00 +16°C° 0 mm 3 m/s 584 mmHg 54%
    09:00 +18°C° 0 mm 3 m/s 585 mmHg 46%
    10:00 +19°C° 0 mm 3 m/s 585 mmHg 42%
    11:00 +19°C° 0 mm 3 m/s 585 mmHg 38%
    12:00 +20°C° 0 mm 3 m/s 586 mmHg 34%
    13:00 +19°C° 0 mm 4 m/s 585 mmHg 34%
    14:00 +19°C° 0 mm 4 m/s 585 mmHg 33%
    15:00 +19°C° 0 mm 4 m/s 585 mmHg 33%
    16:00 +18°C° 0 mm 3 m/s 585 mmHg 40%
    17:00 +17°C° 0 mm 3 m/s 584 mmHg 48%
    18:00 +14°C° 0 mm 3 m/s 584 mmHg 55%
    19:00 +13°C° 0 mm 3 m/s 583 mmHg 57%
    20:00 +11°C° 0 mm 3 m/s 583 mmHg 59%
    21:00 +9°C° 0 mm 2 m/s 582 mmHg 61%
    22:00 +9°C° 0.1 mm 2 m/s 582 mmHg 65%
    23:00 +9°C° 0.1 mm 2 m/s 582 mmHg 68%

    4 Junho, Quinta-feira

    Tempo Temperatura Precipitação Vento Pressão Humidade
    00:00 +8°C° 0.1 mm 2 m/s 583 mmHg 71%
    01:00 +8°C° 0.1 mm 2 m/s 583 mmHg 74%
    02:00 +7°C° 0.1 mm 2 m/s 583 mmHg 77%
    03:00 +7°C° 0.1 mm 2 m/s 583 mmHg 80%
    04:00 +8°C° 0 mm 2 m/s 584 mmHg 76%
    05:00 +9°C° 0 mm 2 m/s 585 mmHg 72%
    06:00 +12°C° 0 mm 1 m/s 586 mmHg 68%
    07:00 +13°C° 0 mm 2 m/s 587 mmHg 60%
    08:00 +15°C° 0 mm 2 m/s 587 mmHg 51%
    09:00 +16°C° 0 mm 3 m/s 588 mmHg 43%
    10:00 +17°C° 0 mm 3 m/s 589 mmHg 42%
    11:00 +17°C° 0 mm 3 m/s 589 mmHg 42%
    12:00 +18°C° 0 mm 3 m/s 589 mmHg 41%
    13:00 +18°C° 0 mm 3 m/s 589 mmHg 40%
    14:00 +18°C° 0 mm 3 m/s 589 mmHg 39%
    15:00 +18°C° 0 mm 3 m/s 589 mmHg 38%
    16:00 +17°C° 0 mm 3 m/s 589 mmHg 44%
    17:00 +16°C° 0 mm 3 m/s 588 mmHg 50%
    18:00 +14°C° 0 mm 3 m/s 588 mmHg 56%
    19:00 +13°C° 0 mm 2 m/s 587 mmHg 63%
    20:00 +10°C° 0 mm 2 m/s 586 mmHg 70%
    21:00 +8°C° 0 mm 2 m/s 585 mmHg 77%
    22:00 +8°C° 0 mm 2 m/s 585 mmHg 75%
    23:00 +8°C° 0 mm 2 m/s 585 mmHg 72%

    5 Junho, Sexta-feira

    Tempo Temperatura Precipitação Vento Pressão Humidade
    00:00 +9°C° 0 mm 1 m/s 586 mmHg 70%
    01:00 +8°C° 0 mm 1 m/s 586 mmHg 71%
    02:00 +7°C° 0 mm 2 m/s 586 mmHg 73%
    03:00 +7°C° 0 mm 2 m/s 586 mmHg 74%
    04:00 +9°C° 0 mm 1 m/s 587 mmHg 73%
    05:00 +11°C° 0 mm 1 m/s 588 mmHg 71%
    06:00 +12°C° 0 mm 1 m/s 589 mmHg 70%
    07:00 +13°C° 0.1 mm 1 m/s 589 mmHg 64%
    08:00 +15°C° 0.1 mm 2 m/s 590 mmHg 58%
    09:00 +16°C° 0.1 mm 3 m/s 591 mmHg 52%
    10:00 +16°C° 0.2 mm 3 m/s 591 mmHg 51%
    11:00 +16°C° 0.2 mm 3 m/s 591 mmHg 49%
    12:00 +17°C° 0.2 mm 4 m/s 592 mmHg 48%
    13:00 +17°C° 0.1 mm 4 m/s 592 mmHg 48%
    14:00 +15°C° 0.1 mm 4 m/s 592 mmHg 48%
    15:00 +15°C° 0.1 mm 4 m/s 591 mmHg 48%
    16:00 +14°C° 0.3 mm 3 m/s 591 mmHg 56%
    17:00 +13°C° 0.3 mm 3 m/s 591 mmHg 64%
    18:00 +13°C° 0.3 mm 2 m/s 590 mmHg 71%
    19:00 +10°C° 0.5 mm 2 m/s 590 mmHg 78%
    20:00 +10°C° 0.5 mm 1 m/s 590 mmHg 85%
    21:00 +9°C° 0.5 mm 1 m/s 590 mmHg 92%
    22:00 +8°C° 0.5 mm 1 m/s 590 mmHg 94%
    23:00 +8°C° 0.5 mm 1 m/s 590 mmHg 95%
    Mostrar mais